Volver al catálogo

STARLINK-37631

ActivoComunicacionesVLEO
NORAD 69369·PAYLOAD·🇺🇸 United States

Lanzado Jun 4, 2026 desde Cape Canaveral Space Force Station

Loading…

Próximos Pases (próximas 24 horas)

TLE

ActualizadoSource: CelesTrak SupGP

Época: Sep 15, 2026, 04:32 UTC

1 69369C 26123S   26258.18937500  .00109870  00000+0  32427-2 0  2585
2 69369  53.1577 166.5257 0001221  78.2476 326.6620 15.34367499    12

Sigue STARLINK-37631 en tiempo real con AllMySat

Download on the App Store